Flag for U.S.A. Weather past 2 weeks in Boise, Idaho, U.S.A.

Now
60 °F

Clear.


Feels Like: 60 °F
Forecast: 58 / 83 °F
Wind: 8 mph from Southeast

Location: Boise Air Terminal

Current Time: May 29, 2015 at 4:47:58 AM

Latest Report: May 29, 2015 at 3:53 AM


Visibility: 10 mi

Pressure: 30.01 "Hg

Humidity: 62%

Dew point: 47 °F

Location of BoiseLocation

Historic Weather in Boise — Graph

°F

Boise temperature yesterday

Maximum temperature yesterday: 78 °F (at 3:53 PM)
Minimum temperature yesterday: 50 °F (at 5:53 AM)
Average temperature yesterday: 66 °F

Past Weeks' High & Low Weather Summary

 TemperatureHumidityPressure
High78 °F (May 24, 4:53 PM)97% (May 15, 10:53 AM)30.05 "Hg (May 15, 10:53 AM)
Low46 °F (May 17, 5:53 AM)25% (May 24, 5:53 PM)29.53 "Hg (May 14, 7:53 PM)
Average61 °F62%29.84 "Hg
* Reported May 14 3:53 AM — May 29 3:53 AM, Boise, Weather by CustomWeather, © 2015

Note: Actual official high and low records may vary slightly from our data, if they occured in-between our weather recording intervals... More about our weather records

Advertising

Boise weather history for previous 24 hours

 ConditionsComfort  
Time TempWeatherWind HumidityBarometerVisibility
3:53 AM
Fri, May 29
60 °FClear.8 mph62%30.01 "Hg10 mi
2:53 AM62 °FClear.8 mph58%30.00 "Hg10 mi
1:53 AM61 °FClear.9 mph60%29.99 "Hg10 mi
12:53 AM61 °FClear.5 mph58%29.99 "Hg10 mi
11:53 PM
Thu, May 28
63 °FClear.No wind52%30.00 "Hg10 mi
10:53 PM70 °FSunny.No wind38%29.99 "Hg10 mi
9:53 PM72 °FSunny.No wind33%29.98 "Hg10 mi
8:53 PM74 °FSunny.7 mph31%29.96 "Hg10 mi
7:53 PM76 °FSunny.10 mph29%29.96 "Hg10 mi
6:53 PM78 °FSunny.8 mph28%29.96 "Hg10 mi
5:53 PM78 °FSunny.9 mph29%29.97 "Hg10 mi
4:53 PM77 °FSunny.9 mph30%29.98 "Hg10 mi
3:53 PM78 °FSunny.7 mph28%29.99 "Hg10 mi
2:53 PM76 °FSunny.10 mph30%30.01 "Hg10 mi
1:53 PM74 °FSunny.10 mph33%30.03 "Hg10 mi
12:53 PM72 °FSunny.10 mph35%30.03 "Hg10 mi
11:53 AM69 °FSunny.6 mph42%30.05 "Hg10 mi
10:53 AM66 °FSunny.6 mph43%30.05 "Hg10 mi
9:53 AM62 °FSunny.No wind56%30.05 "Hg10 mi
8:53 AM60 °FSunny.No wind58%30.04 "Hg10 mi
7:53 AM55 °FClear.5 mph69%30.03 "Hg10 mi
6:53 AM53 °FClear.8 mph69%30.02 "Hg10 mi
5:53 AM50 °FClear.3 mph77%30.01 "Hg10 mi
4:53 AM52 °FClear.5 mph75%29.99 "Hg10 mi
Weather by CustomWeather, © 2015

See weather overviewHow to use our weather pages